Wind_Speed
57 54 51 49 49 48 46 44 44 45 43 43 44 46 47 47 48 53 58 60 55 51 51 47 46 44 38 36 34 34 35 33 33 35 37 38 42 46 47 48 49 48 49 47 44 46 49 51 49 44 45 45 41 39 41 45 47 45 40 40 41 36 33 34 33 29 28 27 27 27 28 27 27 27 27 27 27 25 24 24 26 28 27 27 27 29
58 52 47 47 50 51 50 48 48 47 44 44 45 44 44 44 45 50 56 57 52 50 52 49 46 44 39 36 35 35 34 32 34 36 37 38 43 49 50 49 49 47 46 45 46 49 48 47 47 45 46 48 45 42 42 44 45 43 40 40 40 38 38 40 37 32 30 29 28 29 30 29 30 29 27 27 27 25 25 25 27 30 29 26 27 31
56 50 48 49 50 51 51 51 50 48 45 46 44 42 42 41 43 48 52 53 50 50 53 50 46 43 39 37 36 35 34 32 33 36 35 38 46 51 51 50 50 49 46 45 46 46 43 40 43 45 47 49 47 45 45 46 46 44 42 42 40 38 40 43 40 35 34 34 33 33 33 33 33 32 29 27 26 24 24 24 27 31 30 27 28 33
56 51 52 52 51 51 51 52 51 47 46 45 43 41 40 40 42 46 49 51 51 51 52 51 47 43 40 39 37 35 34 31 31 32 35 40 47 51 50 48 49 49 46 45 45 43 40 39 41 44 46 49 48 46 46 46 47 46 45 45 42 39 42 44 43 41 40 40 39 38 37 37 36 32 29 28 27 24 24 26 30 34 32 29 30 35
59 56 57 55 52 51 51 52 50 46 46 45 42 40 39 39 42 44 47 51 52 50 50 51 49 45 42 40 37 35 33 31 30 32 36 42 46 48 46 44 45 46 45 44 43 42 42 41 42 43 45 49 50 48 47 45 46 48 48 48 45 43 44 45 46 45 44 43 42 40 39 38 36 33 30 28 27 27 27 30 33 34 32 30 33 37
63 61 61 57 55 54 52 50 48 46 46 45 41 40 39 40 42 44 48 51 50 46 48 53 52 46 43 41 39 36 33 33 32 32 37 42 44 46 45 44 45 45 44 44 43 44 44 42 42 43 44 47 49 48 46 46 47 48 49 49 47 46 45 46 48 47 45 43 41 39 38 37 34 33 32 31 29 30 31 34 36 36 35 34 36 39
66 63 61 58 56 56 53 49 47 47 47 45 42 42 41 40 41 46 49 47 44 43 48 56 53 47 43 40 39 38 36 35 32 32 37 43 45 47 46 44 43 42 43 43 44 45 45 43 41 41 42 44 45 45 46 46 48 50 50 49 48 47 46 46 48 47 45 44 42 40 38 37 36 34 34 34 33 33 34 36 38 39 39 39 39 41
65 63 61 59 57 55 51 47 45 47 48 45 44 44 42 40 42 47 47 43 43 45 50 55 52 48 44 41 40 41 39 35 32 32 38 43 45 46 46 44 41 40 41 41 42 43 44 43 39 38 40 42 41 42 44 45 47 51 53 52 51 50 48 48 48 48 47 45 43 41 40 40 39 36 34 34 35 36 37 37 38 40 41 41 42 44
64 64 62 60 58 53 50 47 46 48 48 47 47 46 43 42 44 48 46 43 43 44 47 51 51 48 45 43 43 43 40 36 35 35 38 41 44 45 45 42 39 39 40 40 41 41 38 38 37 38 40 41 40 40 42 44 47 50 53 53 54 53 50 49 49 49 49 48 45 44 43 42 42 39 35 33 34 37 39 38 38 40 42 44 46 49
67 65 63 62 58 53 51 50 49 48 47 49 50 47 45 44 46 47 44 42 42 39 42 48 50 48 47 46 45 42 40 40 40 39 37 39 44 46 44 40 37 38 37 37 40 39 34 34 37 39 42 43 43 42 43 45 47 50 51 52 53 52 49 49 50 50 51 49 47 45 44 44 43 42 38 36 36 38 40 41 41 42 44 47 49 50
68 66 65 62 57 54 54 53 51 48 49 51 49 47 48 47 47 46 43 43 40 36 40 47 50 50 49 48 45 43 44 44 43 40 37 40 46 46 43 39 37 36 34 34 38 39 37 38 40 41 42 43 44 44 44 46 48 50 51 51 52 51 49 48 49 50 49 48 46 45 45 44 44 43 41 40 39 40 42 43 44 45 46 47 47 47
69 67 64 60 59 58 57 55 52 49 50 51 49 49 50 48 47 45 42 40 34 32 40 47 49 50 50 48 46 46 48 47 43 41 39 41 45 46 43 42 39 37 37 38 40 43 42 42 41 41 41 42 42 43 45 47 48 50 52 52 53 53 52 51 49 48 47 44 43 44 44 43 43 43 42 41 41 42 43 45 46 46 45 45 45 46
69 67 64 63 63 61 58 56 52 50 50 49 50 51 49 48 47 42 38 35 30 32 40 44 47 49 50 51 51 50 49 47 44 43 40 40 44 47 46 44 41 40 41 41 43 45 43 40 39 39 40 42 42 42 45 48 49 50 52 54 54 54 53 53 51 49 46 42 41 42 42 42 42 42 41 40 40 39 41 43 45 45 45 45 45 46
72 69 68 66 64 60 57 54 50 48 48 48 50 50 48 48 45 38 35 33 32 34 38 43 47 47 49 53 53 50 49 48 46 45 43 41 43 47 47 43 41 42 43 41 41 44 43 40 39 37 38 40 41 42 44 47 49 50 52 52 53 53 53 53 53 52 49 46 44 43 43 44 43 41 40 38 37 37 39 41 43 46 47 47 47 47
73 69 66 61 59 57 55 52 50 50 49 49 50 50 49 47 42 37 35 34 34 34 37 45 48 46 48 54 53 50 50 50 49 48 47 45 45 47 46 44 42 44 44 41 39 42 44 42 39 37 37 38 39 40 42 45 48 50 51 51 51 51 51 53 54 54 53 52 49 46 45 47 47 44 42 40 39 38 39 41 44 47 48 49 51 52
70 65 59 57 58 59 56 53 55 55 51 50 50 48 47 45 42 40 39 38 37 36 39 45 46 43 46 52 52 50 51 51 52 51 49 46 47 50 50 48 47 46 44 42 41 43 45 44 41 40 41 40 39 38 40 43 46 48 50 51 51 50 50 52 53 55 56 55 52 49 47 49 51 51 49 47 44 42 41 42 43 45 47 50 53 55
68 62 59 60 61 60 57 56 58 54 50 50 48 45 46 47 45 44 41 39 38 37 39 43 45 42 44 50 52 51 51 52 52 52 51 50 51 54 56 54 51 49 47 46 45 45 45 44 42 42 43 42 40 39 40 41 42 43 46 49 51 51 50 50 51 53 55 54 53 52 50 50 52 54 54 52 50 48 46 46 46 47 48 50 53 56
68 63 62 63 61 59 57 57 58 53 49 49 46 44 49 50 47 45 42 38 38 37 38 43 46 42 42 48 52 53 53 51 50 51 53 54 56 57 58 57 54 52 51 49 48 47 47 46 44 44 44 44 42 40 41 41 40 40 42 45 50 53 54 54 53 53 53 53 52 53 53 52 53 55 57 57 56 55 54 53 52 52 53 54 56 59
71 69 68 65 62 59 58 58 58 53 50 50 46 45 49 49 45 44 42 39 38 37 39 44 46 41 40 45 49 52 54 51 49 51 53 57 60 59 59 59 57 56 54 53 51 50 50 49 46 45 45 45 45 43 43 44 43 41 41 43 46 50 53 56 56 56 55 54 54 55 56 56 56 56 58 59 60 60 59 58 56 55 55 56 57 60
74 74 71 66 63 62 61 60 56 52 51 52 49 46 47 48 46 44 42 41 39 38 40 43 44 42 41 43 46 50 53 52 50 51 53 58 61 61 60 60 60 59 58 57 56 54 53 50 48 46 45 46 48 47 46 48 48 45 43 43 43 45 47 50 53 55 55 56 57 58 59 60 60 59 59 60 61 61 60 59 57 55 55 56 58 59
77 74 70 68 66 63 60 56 52 52 53 53 49 44 45 48 47 45 44 42 39 38 39 42 43 43 44 43 46 50 52 51 51 51 52 57 62 63 62 61 60 60 60 59 58 55 52 49 49 49 48 49 50 49 47 49 50 49 47 45 44 43 43 45 47 49 50 52 54 57 59 60 60 60 60 59 59 59 59 58 57 55 53 53 55 55
76 73 70 68 64 59 56 55 56 57 56 53 48 43 44 47 47 46 44 39 38 38 40 41 43 46 47 46 48 50 49 49 51 53 54 56 61 65 65 62 61 61 60 59 58 56 51 48 48 48 47 49 49 48 48 48 49 49 49 47 45 44 43 44 45 47 48 49 50 52 54 55 56 57 57 57 56 56 56 56 55 53 51 51 51 51
74 72 69 65 60 58 60 61 61 59 55 52 48 44 45 48 47 45 42 38 38 39 40 41 43 46 48 48 48 49 47 48 50 53 55 56 59 64 65 65 64 63 62 59 58 57 53 49 48 47 46 46 47 48 49 49 49 50 50 48 47 46 46 45 46 47 48 48 49 50 51 51 52 53 54 55 56 56 56 55 55 54 53 53 53 54
73 71 69 65 63 63 64 63 62 59 53 50 47 43 44 47 47 45 44 41 39 39 39 41 42 45 47 47 48 49 48 48 49 52 55 56 57 60 62 64 67 67 65 62 59 56 51 47 48 48 46 46 46 47 48 49 50 50 49 48 48 47 46 47 47 47 47 47 47 49 50 51 51 52 54 56 56 57 56 56 55 55 56 56 57 57
72 69 67 65 64 64 64 61 58 54 50 47 44 42 44 47 48 48 47 44 40 38 38 39 41 44 46 45 47 50 50 49 49 51 54 54 55 55 57 61 65 65 64 63 60 58 53 48 47 47 47 47 47 46 47 49 50 49 49 49 48 47 46 47 48 47 47 46 47 49 50 52 53 55 56 57 57 57 57 56 56 56 57 58 58 59
69 65 63 61 59 58 57 53 49 47 47 46 44 43 44 47 49 49 47 43 39 38 38 39 41 43 44 45 47 50 51 49 49 50 51 52 52 52 55 58 60 60 61 60 58 57 55 53 51 50 49 47 46 45 46 47 48 48 49 50 50 48 49 50 50 48 47 47 48 50 52 53 55 56 57 57 57 57 57 57 57 57 58 58 58 59
68 64 61 59 56 55 54 52 50 49 47 45 45 44 44 47 50 49 46 42 40 39 39 40 41 42 45 46 46 48 49 49 49 50 51 51 51 51 54 56 56 56 57 57 56 54 53 53 53 50 48 48 47 45 44 44 45 46 47 49 49 49 50 52 51 49 49 49 51 52 53 54 55 56 56 56 56 56 57 57 58 58 58 58 58 59
66 63 61 58 56 55 55 56 55 52 48 46 47 46 45 48 51 50 47 44 42 40 40 40 41 43 45 45 45 45 46 48 50 51 52 52 52 53 54 53 54 54 55 54 53 51 49 48 49 48 47 48 49 47 46 45 44 43 43 44 46 47 49 51 51 51 51 52 53 53 54 54 55 55 55 55 55 56 57 57 57 57 57 58 58 58
64 61 60 59 58 57 57 57 56 54 52 50 49 47 47 50 52 50 47 45 43 41 39 39 40 42 44 45 44 44 45 48 50 52 53 53 52 53 53 52 51 52 53 53 51 49 44 40 41 43 44 46 48 50 50 49 44 42 42 42 44 46 48 50 52 54 55 56 55 55 55 55 55 55 55 55 55 56 56 56 56 56 56 57 58 57
63 60 60 59 59 59 59 59 57 55 53 51 49 49 49 52 52 50 47 44 42 41 40 39 39 41 42 41 40 41 43 46 48 50 52 52 52 52 52 52 51 49 49 48 47 47 42 36 37 42 43 45 49 51 52 50 46 44 44 45 46 48 50 52 55 56 57 57 56 56 56 55 55 55 55 55 55 55 54 54 54 55 56 56 56 55
60 59 59 59 61 61 61 60 58 56 54 52 51 50 50 51 51 49 47 43 41 41 41 39 39 39 39 39 38 40 42 45 46 47 48 50 51 51 50 50 49 47 46 44 43 44 43 42 44 46 44 44 47 50 50 49 49 48 48 49 50 52 53 55 55 55 54 55 55 55 55 55 54 54 54 54 54 54 53 54 54 55 55 54 54 52
59 59 59 60 61 61 61 59 57 55 53 52 51 50 48 50 50 49 46 43 42 41 41 39 39 39 39 40 41 42 45 46 46 46 46 47 49 50 49 48 47 45 43 42 43 43 44 47 50 51 49 47 48 50 50 51 52 52 51 52 53 53 52 52 53 53 52 53 53 53 53 54 53 53 53 54 54 54 54 54 54 54 54 53 52 51
60 60 59 59 58 57 57 56 53 51 50 49 48 47 46 48 49 47 45 43 41 40 41 42 41 39 39 41 42 44 46 46 45 45 45 45 46 48 49 49 48 46 43 42 43 44 44 48 51 53 53 54 53 51 50 52 53 53 53 53 53 52 50 50 51 51 51 52 52 52 53 53 52 52 53 53 53 54 54 54 54 53 52 51 50 50
58 58 57 56 55 54 54 53 51 50 49 47 45 44 45 47 48 47 45 43 41 41 43 43 40 37 38 41 43 44 44 43 43 44 44 44 44 45 47 49 51 50 47 45 45 45 44 47 50 53 55 57 57 54 53 54 55 55 55 55 54 52 51 51 50 50 50 51 51 52 53 52 51 51 52 52 52 53 54 53 53 52 51 50 49 50
55 55 54 54 55 54 53 51 50 49 48 47 46 46 47 48 49 48 45 43 42 42 43 42 39 37 39 42 42 41 41 41 42 42 43 43 43 44 45 47 50 51 50 50 50 47 44 45 48 51 55 58 59 58 58 58 58 58 57 56 55 54 53 52 51 50 49 49 50 51 51 51 51 51 51 52 52 52 52 52 51 50 49 49 50 51
57 56 55 56 56 55 53 52 51 49 48 48 48 48 49 50 50 48 45 42 41 39 40 42 41 39 41 43 41 40 40 41 41 41 42 42 42 42 44 46 49 50 50 52 53 50 46 45 46 48 52 56 59 61 62 62 62 60 58 57 57 57 56 53 52 51 49 49 49 50 50 50 51 51 51 51 52 51 51 50 50 50 50 51 53 54
58 57 56 56 55 54 53 52 50 48 48 50 50 50 50 50 49 48 44 42 41 40 42 45 44 41 42 43 40 40 41 41 41 40 41 41 40 41 44 46 49 52 52 52 54 53 52 52 50 51 53 56 59 62 64 64 60 56 56 57 58 58 57 54 53 51 50 49 48 49 49 50 50 51 51 51 51 51 51 51 52 53 54 55 57 58
58 57 57 56 55 54 53 50 48 47 48 49 50 50 50 49 48 47 45 44 43 43 45 48 46 41 41 41 40 40 41 41 41 41 41 40 39 40 43 45 47 51 54 55 56 56 57 57 56 56 57 58 58 59 61 60 56 52 53 54 53 53 52 52 53 52 50 49 48 48 49 50 50 51 51 51 51 52 53 54 55 56 57 58 60 60
58 57 56 56 55 53 51 48 46 46 47 49 49 49 49 49 48 46 46 44 43 43 45 47 45 38 37 39 39 40 41 42 41 41 40 40 39 39 42 44 46 49 53 56 59 60 60 61 60 59 60 61 60 58 58 58 56 54 54 52 49 49 48 49 52 53 52 50 49 49 50 50 51 52 52 52 52 53 54 55 56 58 58 59 60 61
55 54 53 53 52 50 48 46 45 47 48 49 49 48 47 48 47 46 45 43 40 42 44 46 43 37 34 37 39 39 41 41 40 40 39 39 38 39 42 44 47 49 50 53 57 61 63 63 63 63 64 64 63 61 59 59 58 57 57 55 53 52 51 50 52 54 53 52 51 51 51 51 52 53 54 54 55 55 56 57 57 58 59 60 62 63
52 51 51 52 51 48 45 44 44 46 48 48 47 47 47 47 46 45 44 42 41 42 44 44 43 39 36 37 37 38 40 41 40 40 39 38 38 39 42 44 46 48 49 51 54 59 63 65 64 64 64 64 63 62 61 62 61 61 60 60 58 56 53 53 53 54 53 52 52 53 53 53 54 55 56 57 58 59 60 61 61 62 62 64 65 66
49 49 49 49 47 45 44 44 44 45 46 46 46 47 47 46 44 43 44 43 42 43 44 45 44 41 37 37 36 38 40 41 41 40 39 38 38 39 41 44 45 45 47 48 51 55 59 61 62 62 62 62 62 62 61 62 62 62 61 60 59 57 55 54 54 54 53 52 53 54 55 55 56 57 58 60 61 62 63 64 65 65 66 67 69 70
47 47 47 46 44 43 42 42 42 43 43 44 45 45 45 44 43 43 44 44 43 43 44 46 44 41 38 38 37 38 41 43 42 40 39 39 39 39 40 43 45 46 46 46 47 50 53 56 57 58 59 59 58 58 59 60 60 61 61 60 59 56 55 55 55 54 53 54 55 56 56 56 57 59 60 61 62 63 64 65 66 67 68 69 70 71
45 45 45 44 44 43 42 41 40 41 42 43 43 43 43 43 44 44 45 45 44 43 44 45 43 41 41 40 39 40 42 43 41 38 38 39 40 39 40 42 45 47 47 47 47 49 51 53 55 56 57 57 57 57 57 58 57 58 60 60 57 51 50 53 55 55 55 56 57 57 57 58 59 60 61 62 62 63 64 65 66 67 68 69 70 70
42 42 42 42 42 41 40 39 39 40 42 43 44 44 44 43 44 44 44 44 44 44 45 45 44 43 43 42 42 42 42 41 38 36 38 40 40 40 41 41 42 44 46 48 48 48 49 52 53 55 56 57 58 58 57 56 55 55 58 59 56 52 52 56 59 59 58 58 58 58 59 59 60 61 62 63 63 64 65 65 66 67 68 68 69 70
41 41 41 41 41 39 38 38 37 38 42 44 45 45 45 45 45 45 45 44 44 45 45 46 46 45 45 44 43 42 41 40 38 37 39 42 42 41 41 40 40 41 44 45 45 46 48 51 52 53 55 56 58 58 57 56 55 55 56 56 55 55 57 60 61 59 59 59 59 59 59 60 61 62 63 63 64 64 65 65 65 66 67 67 68 68
41 41 41 41 41 40 40 39 39 39 42 46 47 46 46 47 46 46 46 45 45 46 46 47 47 47 47 46 44 42 40 40 39 39 41 44 44 43 41 39 39 40 41 42 42 43 45 47 48 50 52 54 55 55 53 51 48 49 50 52 53 55 57 59 59 59 59 59 59 59 60 60 61 62 63 63 63 64 64 64 64 64 65 65 66 66
42 43 43 42 42 41 41 42 44 45 46 48 48 47 47 47 47 47 47 47 46 47 47 48 48 48 48 47 45 43 42 42 40 40 43 45 44 43 41 39 39 40 41 42 43 43 44 45 45 46 47 49 50 49 47 45 44 46 49 49 49 53 56 57 57 58 58 59 59 59 60 61 61 62 62 62 62 62 62 62 63 64 64 65 66 66
46 45 44 43 42 42 43 44 46 49 50 49 48 48 48 47 47 48 47 47 46 47 47 48 49 49 49 48 47 46 45 45 43 43 45 46 45 44 44 43 43 44 44 44 45 46 46 46 45 45 45 46 47 47 47 47 47 49 50 49 50 52 55 56 57 57 58 59 59 59 60 61 62 62 61 61 61 61 61 62 63 63 64 64 64 64
45 44 44 44 45 45 46 47 48 49 50 49 48 48 48 47 48 48 48 48 48 48 48 48 49 49 49 49 48 47 47 47 46 46 48 48 47 46 46 46 46 47 47 47 48 48 48 48 48 47 47 48 49 49 49 49 49 50 51 51 52 54 55 55 56 57 58 59 59 60 61 61 60 60 59 59 59 59 59 60 61 61 61 61 61 61
45 44 44 46 47 47 49 50 50 50 50 50 49 48 47 47 48 49 50 50 50 50 50 50 51 51 50 50 50 49 49 48 49 49 50 51 50 49 48 48 48 48 48 49 49 50 51 51 51 50 50 50 50 49 49 49 51 53 53 52 52 54 55 55 56 57 58 58 59 60 61 60 58 57 56 56 56 56 56 56 56 57 58 58 59 59
Wind_Direction
239 239 238 238 238 238 238 237 237 237 236 235 235 234 233 232 230 231 233 231 226 228 230 226 227 228 226 228 229 229 231 227 223 220 216 210 200 200 200 198 201 205 207 206 208 208 206 212 219 218 220 222 224 230 238 241 242 248 249 250 255 262 272 279 280 281 283 286 289 290 292 293 295 298 296 292 288 275 261 257 249 238 237 243 252 264
237 237 237 237 237 235 234 234 234 234 234 235 236 235 234 233 231 232 233 232 224 225 229 225 224 227 224 225 226 226 227 222 218 215 212 205 198 198 199 197 198 202 204 204 206 208 210 218 224 223 221 222 225 231 236 239 241 246 249 250 251 253 262 271 274 277 282 286 289 291 291 291 292 296 295 286 278 268 256 252 243 236 240 247 255 266
237 237 236 236 236 235 234 233 233 233 234 235 235 235 235 233 232 233 234 232 223 221 227 225 222 223 221 222 223 222 222 218 215 213 209 201 197 200 201 200 202 207 207 206 207 209 214 222 226 226 222 219 223 230 236 241 243 245 247 249 249 246 253 264 270 273 277 280 284 286 286 288 288 290 291 282 274 264 252 246 239 238 245 250 256 266
235 235 236 236 236 235 234 233 233 234 235 237 237 237 236 234 233 233 234 232 223 219 223 224 221 219 218 220 221 219 219 216 213 212 207 201 200 203 204 204 207 209 208 207 210 213 220 225 226 227 224 221 226 233 238 242 244 242 242 246 248 243 247 257 264 268 272 277 280 282 284 286 286 287 286 280 275 264 249 242 240 243 248 252 260 269
231 231 232 234 234 235 235 234 233 233 235 237 237 238 237 236 235 233 233 232 224 218 221 224 220 216 215 217 219 218 217 214 211 212 207 203 204 205 203 203 207 208 206 206 210 217 225 229 229 230 227 225 230 235 238 242 243 240 240 245 247 245 246 252 258 263 269 274 277 280 283 284 285 282 279 278 274 267 258 250 247 248 250 255 265 272
228 229 230 230 231 233 233 233 231 230 233 234 235 236 236 235 236 234 232 231 224 215 219 223 219 214 212 213 216 215 213 213 212 212 209 204 205 206 202 204 208 209 207 208 214 222 228 231 232 231 230 229 232 234 237 240 241 241 242 245 246 246 247 249 253 259 265 270 272 275 278 282 284 279 273 274 274 270 265 259 255 253 254 257 264 269
226 228 230 231 231 233 233 232 230 229 231 232 232 234 234 234 236 237 234 231 225 213 215 222 219 213 212 210 213 214 210 210 210 211 209 205 206 207 205 204 208 208 207 210 217 223 227 231 233 234 234 234 234 236 238 239 240 242 244 244 245 246 247 248 251 255 261 265 268 271 273 277 283 280 270 268 271 268 264 261 258 255 255 257 259 262
226 228 229 230 232 233 234 233 233 231 230 230 231 232 233 232 234 237 234 230 225 216 215 220 217 212 211 209 212 215 211 208 209 211 209 206 207 207 205 204 207 209 210 212 217 222 226 229 231 236 238 237 238 238 237 237 239 242 243 243 244 245 246 248 251 253 257 262 266 268 268 273 280 280 272 265 266 266 262 259 257 256 258 259 260 262
225 226 228 229 231 233 234 234 233 233 231 229 230 231 231 231 233 236 233 226 224 219 218 221 218 212 209 209 212 215 212 208 210 211 208 205 204 202 202 203 207 210 210 215 219 220 224 229 235 242 244 242 241 241 237 235 237 242 243 243 244 245 247 249 251 253 256 260 264 265 267 271 276 277 274 266 262 264 263 259 258 260 262 263 263 265
222 223 224 227 228 230 232 232 232 232 230 229 229 231 231 231 232 236 234 228 224 220 220 222 218 212 208 209 211 212 213 210 209 210 207 206 205 201 199 202 205 207 209 216 219 217 222 232 240 246 247 245 244 243 241 238 237 240 243 244 244 246 247 249 251 254 256 259 263 265 267 270 273 274 273 268 264 264 265 264 264 265 267 267 266 267
219 220 222 224 225 227 229 230 230 230 229 228 228 229 231 230 233 235 233 229 224 218 221 223 217 212 208 209 210 210 213 212 208 207 206 208 208 203 199 200 202 204 208 215 216 214 220 229 237 244 246 246 245 243 242 240 238 239 242 245 246 247 248 248 251 253 255 258 261 265 267 269 271 271 270 269 267 266 267 269 271 271 272 272 270 271
218 219 221 222 224 225 226 228 229 229 229 228 226 227 230 231 233 235 233 231 225 218 223 224 218 211 207 208 209 209 211 211 207 205 205 209 209 203 199 199 201 204 207 211 212 213 220 226 235 244 245 245 244 241 238 237 237 239 243 246 247 249 250 249 251 253 254 256 260 263 265 267 268 269 269 269 269 270 270 271 273 274 274 274 274 276
219 220 220 221 223 224 225 228 229 230 231 230 227 227 230 232 234 236 235 234 228 222 224 226 221 213 208 210 209 208 210 211 209 207 206 208 206 201 199 201 204 205 205 209 212 215 221 228 234 240 242 242 240 236 235 234 235 238 242 245 247 248 250 250 251 253 253 255 260 261 262 263 266 268 269 271 273 274 275 276 276 276 276 275 275 275
218 218 218 219 222 224 226 229 231 233 234 233 230 229 230 233 235 236 235 234 231 225 224 226 222 213 210 212 210 208 209 211 212 210 207 206 204 201 201 206 208 206 207 213 217 219 225 232 234 236 240 241 237 235 235 235 236 237 240 244 246 247 249 250 252 253 254 257 260 260 259 260 263 267 268 270 274 277 279 279 278 278 278 277 274 272
217 218 219 221 224 227 227 229 231 232 233 233 231 228 228 232 234 234 233 231 230 226 223 227 224 212 210 213 210 208 209 212 214 213 209 206 206 206 207 211 212 210 214 221 223 222 225 228 230 235 242 244 240 239 239 239 239 239 240 243 246 248 249 250 252 254 256 258 260 260 259 259 261 265 267 269 273 277 279 278 277 278 278 277 275 273
216 216 218 220 223 225 225 227 230 231 231 233 232 227 227 230 231 231 230 227 225 223 220 227 227 215 212 215 210 207 208 212 215 213 209 208 210 212 214 215 216 216 219 224 222 220 221 225 231 239 244 244 244 245 245 243 244 243 242 242 244 248 250 251 253 256 258 260 260 260 260 259 259 262 265 269 272 276 279 279 280 280 279 277 276 275
214 213 214 216 219 222 223 224 228 230 231 234 234 229 226 227 228 229 229 226 225 222 219 225 228 218 214 216 212 208 207 210 215 213 209 210 213 214 215 215 217 219 221 222 221 222 226 231 237 242 243 243 245 249 250 248 248 248 247 245 244 247 249 251 253 255 258 260 261 262 262 262 261 261 263 266 269 272 275 278 279 279 279 278 276 276
214 212 213 215 216 219 222 224 227 228 228 232 233 229 226 226 227 228 229 227 226 223 219 224 228 220 215 216 213 209 206 206 212 215 212 212 215 213 213 214 217 219 221 222 222 226 232 236 241 244 246 247 249 251 250 249 250 252 252 250 248 248 250 251 252 254 257 259 260 262 263 264 264 264 264 266 268 270 273 276 278 278 277 276 275 277
213 211 211 213 214 217 219 222 224 226 227 230 231 228 227 228 227 229 230 228 226 222 219 224 229 224 219 219 217 212 207 202 207 215 216 217 218 216 214 216 218 220 222 223 223 227 232 237 243 247 247 249 251 250 248 247 250 254 256 255 254 253 252 253 254 256 257 257 258 259 261 262 263 263 265 267 269 271 274 278 280 280 279 278 279 280
213 213 212 212 213 214 218 220 221 223 226 229 230 227 227 226 225 226 228 228 227 223 221 225 229 228 223 222 222 217 209 201 201 210 218 221 221 220 220 221 222 223 224 225 226 229 234 240 246 249 250 250 250 249 247 246 248 253 258 259 259 258 257 257 258 259 260 259 258 259 261 262 263 263 265 268 271 274 277 280 283 284 283 284 285 286
213 213 213 213 214 214 218 221 222 223 225 228 230 228 228 227 225 225 226 227 227 224 223 224 226 229 226 223 223 220 211 203 199 205 216 222 222 223 224 225 225 224 225 228 229 231 236 243 248 250 251 251 248 247 247 247 248 252 256 259 261 263 263 262 262 263 263 263 262 262 262 263 264 266 268 270 273 276 278 281 284 287 288 288 287 287
214 213 212 214 215 216 218 220 220 221 223 227 228 226 225 226 226 227 227 227 228 226 224 223 223 227 226 223 223 221 214 208 204 205 214 221 222 223 225 226 226 226 228 231 232 232 233 238 244 248 250 250 248 246 247 250 251 252 255 257 260 263 265 266 266 264 264 265 264 265 265 265 266 268 271 273 276 279 281 284 286 288 288 288 287 286
214 213 212 212 213 214 217 218 219 220 223 226 227 223 222 223 224 227 228 227 228 227 225 224 223 226 227 224 224 223 217 213 210 209 214 220 222 222 224 226 228 228 230 232 233 234 235 236 240 245 248 250 250 249 250 254 255 256 256 257 260 263 264 265 265 265 266 266 266 266 266 266 267 269 272 275 278 281 284 286 286 286 286 286 286 286
213 213 212 211 210 212 215 217 218 220 223 226 228 226 223 223 222 224 225 224 225 226 225 224 225 227 229 227 226 225 221 216 215 215 216 218 221 223 224 226 228 229 230 233 234 234 235 238 241 244 246 250 254 254 255 257 258 258 257 257 260 261 262 263 265 265 266 267 267 266 266 267 269 272 275 278 281 283 285 285 285 285 285 285 285 286
213 212 212 211 211 214 217 219 220 222 224 227 230 229 226 224 223 223 224 223 222 224 225 225 225 228 229 228 227 228 225 218 217 219 220 219 221 223 225 226 228 229 230 232 233 232 231 234 239 241 242 248 255 257 256 256 255 255 255 256 258 259 261 264 265 264 265 267 269 270 271 273 274 277 279 281 283 283 284 284 284 284 284 284 285 286
211 211 212 212 212 216 221 224 226 227 227 229 230 229 227 224 224 225 226 226 224 223 224 224 226 229 229 227 226 228 228 223 219 220 222 222 222 224 227 227 226 228 231 231 232 232 231 233 237 240 241 245 251 254 254 255 255 256 258 258 259 260 261 261 262 262 264 270 275 277 278 279 280 281 281 282 282 282 282 282 283 283 284 284 285 286
209 208 209 211 210 213 217 218 220 221 223 225 228 229 226 223 224 225 226 227 227 225 224 223 224 227 229 228 227 227 229 228 224 222 222 223 225 227 229 228 226 226 229 230 231 232 233 235 238 240 241 242 245 249 252 256 258 259 260 259 259 260 258 257 258 262 267 273 278 280 281 281 282 282 282 281 281 280 280 281 282 283 284 284 285 287
207 205 207 208 207 209 213 215 216 216 216 217 221 224 223 221 223 225 224 225 228 228 227 225 225 227 229 229 228 227 228 230 229 226 223 223 225 228 229 229 227 227 227 228 229 230 232 236 240 242 242 241 243 247 251 254 256 258 258 256 255 255 254 255 258 265 272 276 279 280 280 280 280 280 280 280 279 279 280 280 281 282 283 283 285 287
204 204 205 207 205 206 210 214 217 217 216 216 218 220 220 219 221 223 223 224 227 230 231 229 228 229 230 230 230 228 228 230 231 230 227 225 226 229 230 229 229 229 228 227 227 227 228 233 238 239 239 240 243 246 250 252 254 256 257 256 254 254 256 259 264 270 275 277 277 277 277 277 277 278 278 278 278 279 279 280 280 281 281 283 285 287
201 202 205 206 206 206 209 213 215 217 217 218 219 220 218 217 219 220 222 223 226 231 232 230 229 231 232 232 233 233 233 233 233 233 232 230 229 230 232 231 230 231 230 229 228 225 222 222 228 233 237 245 248 249 251 253 253 255 257 257 256 259 263 268 271 274 274 274 274 273 273 274 274 275 276 277 277 278 278 279 279 280 281 283 285 287
200 202 204 206 207 207 210 213 214 216 217 218 220 220 218 217 218 220 221 222 224 230 232 231 230 231 233 233 233 233 234 234 233 233 233 232 232 231 232 233 233 233 232 230 228 226 220 216 221 227 232 241 248 249 250 252 253 256 257 256 258 263 269 271 273 273 272 271 270 270 271 272 273 274 276 277 277 277 277 278 279 280 282 284 286 287
201 202 204 206 209 210 212 215 217 219 221 220 222 221 217 216 219 221 221 221 223 228 232 233 231 230 231 233 233 232 233 233 231 232 232 232 232 232 232 233 234 233 232 229 226 224 220 217 220 223 224 229 238 243 247 250 253 256 257 258 262 268 271 271 271 271 270 270 269 270 270 271 273 274 276 277 278 278 278 279 280 281 282 283 285 287
200 203 204 207 211 213 216 218 219 221 224 224 226 224 217 216 220 221 221 222 223 227 231 232 230 228 228 232 234 235 235 234 232 232 233 233 233 233 231 231 231 231 230 226 223 222 221 220 221 223 224 228 233 238 242 246 250 254 257 261 265 268 270 270 270 271 271 270 270 270 270 271 273 274 275 277 278 279 279 279 280 280 282 283 285 287
202 204 206 208 211 213 216 219 219 220 222 223 224 222 216 217 222 223 222 221 221 225 231 234 232 228 228 231 234 237 239 238 236 234 233 233 234 234 232 230 231 232 230 226 224 223 223 224 225 225 226 229 232 235 240 244 249 254 259 263 265 267 268 269 269 270 271 270 270 270 271 272 272 273 275 276 277 278 278 278 279 280 281 283 285 287
202 204 205 208 211 212 213 215 217 218 220 220 219 216 212 215 221 223 223 223 223 225 232 237 235 230 229 232 233 237 241 242 239 237 235 233 232 233 233 231 232 234 232 228 228 230 230 230 231 230 230 233 236 240 244 248 252 257 262 265 265 266 267 267 267 269 270 270 270 270 271 272 272 273 274 275 275 276 276 277 278 279 280 282 284 286
200 202 203 207 210 212 212 214 215 215 217 218 216 212 210 213 219 222 224 225 227 229 233 238 237 232 232 233 233 235 239 242 241 240 237 235 233 232 232 230 229 232 234 233 233 235 236 236 236 235 235 237 241 245 249 253 256 260 263 264 264 265 265 265 265 267 268 269 269 270 271 272 272 273 273 274 274 275 275 276 277 278 279 281 283 285
201 201 203 207 210 212 213 215 216 214 214 215 214 210 210 214 217 221 224 225 227 228 230 234 236 233 233 235 234 234 238 241 242 242 240 237 235 234 234 231 228 229 232 235 236 236 236 237 237 238 239 241 245 248 251 253 256 260 262 263 264 264 263 263 264 265 267 268 269 270 271 271 272 273 273 273 273 274 274 275 276 278 280 282 284 285
201 202 204 206 208 211 214 215 215 213 212 213 212 210 212 215 217 221 224 225 225 226 229 233 236 234 234 236 236 236 239 241 242 243 242 239 236 235 235 234 230 228 229 231 233 234 235 235 236 238 240 242 246 249 250 251 252 254 257 261 262 262 262 263 263 264 265 267 269 269 270 270 270 270 270 270 271 272 273 274 276 278 280 281 283 284
201 203 204 206 209 211 213 213 212 211 210 210 211 211 213 216 218 221 224 226 227 230 233 238 242 240 237 239 239 239 241 243 244 245 245 242 238 236 235 235 234 232 230 229 229 231 233 233 235 238 240 244 248 250 250 251 251 251 253 256 258 259 260 261 262 263 265 266 268 269 269 268 268 267 267 268 269 269 271 273 275 277 278 280 280 281
202 203 205 208 211 213 212 210 208 207 207 208 210 213 215 218 220 223 227 229 231 234 237 242 246 244 239 239 241 242 244 246 247 247 247 245 241 237 236 235 234 234 233 231 230 231 232 234 236 239 242 246 250 252 252 254 254 253 254 255 256 258 259 260 262 264 264 266 267 268 268 268 267 266 267 267 267 268 269 271 273 275 277 278 279 281
201 203 204 207 210 211 209 206 205 205 206 208 211 214 216 219 221 224 228 231 232 234 238 242 243 240 237 237 240 243 245 247 248 248 248 246 243 239 237 235 234 234 235 236 235 234 234 237 239 241 245 249 252 253 255 256 256 256 256 257 258 260 261 261 262 264 265 266 266 267 267 268 268 268 268 267 267 268 269 271 273 275 276 278 280 282
199 202 204 206 207 206 203 201 203 206 208 210 213 216 218 221 223 226 229 231 233 235 237 240 241 239 236 237 239 243 246 248 249 250 249 247 244 241 238 236 234 234 234 236 238 238 237 239 241 243 246 249 251 253 255 256 257 258 258 259 260 262 264 265 265 264 265 265 266 266 267 268 269 269 269 269 269 270 271 272 274 275 276 279 281 283
197 199 201 202 203 203 201 201 204 209 212 214 215 218 220 222 224 226 229 231 234 236 237 238 239 239 238 238 239 241 244 246 248 250 251 250 246 243 239 237 236 236 235 236 238 239 239 240 242 243 245 247 250 252 254 255 257 258 259 261 263 265 267 266 264 264 264 264 265 266 267 268 268 269 269 270 270 271 272 273 275 276 278 280 283 285
195 197 198 199 201 203 203 204 207 212 216 218 219 220 222 224 226 228 230 232 234 235 236 238 239 239 238 239 239 239 241 245 247 250 252 252 250 246 243 240 239 238 239 239 240 240 240 241 242 244 245 247 249 251 253 255 258 259 260 261 262 262 262 262 261 262 263 264 264 265 266 267 267 268 269 270 271 272 273 275 276 278 280 282 284 286
195 197 199 201 204 205 205 207 210 215 218 219 220 220 222 224 227 230 233 235 236 235 235 237 239 240 240 241 241 240 242 246 248 251 253 254 252 249 247 245 243 242 241 241 241 242 242 243 245 246 248 250 251 253 255 257 258 259 261 262 261 258 256 258 260 262 263 263 264 265 265 266 267 268 269 270 271 273 275 276 278 280 282 283 285 286
198 200 202 205 206 207 208 209 212 218 223 223 222 221 222 223 226 229 233 235 235 235 236 237 239 241 242 243 243 243 245 246 247 250 253 254 254 252 250 248 246 245 244 243 244 246 246 247 248 249 251 252 253 255 257 259 260 261 262 263 261 259 258 259 261 262 262 262 263 263 264 265 266 267 269 270 272 274 275 277 279 281 282 283 285 287
203 204 206 207 208 208 209 209 210 216 223 224 223 223 224 226 228 231 233 234 234 234 235 237 238 240 242 243 244 244 245 246 246 247 250 252 254 253 252 251 250 248 248 248 250 250 250 250 250 252 253 254 255 257 259 260 260 261 261 262 261 260 260 260 261 261 261 262 262 263 264 265 266 267 269 270 272 274 276 278 279 281 282 284 286 289
206 207 208 209 210 210 211 211 211 214 220 222 221 222 224 227 230 232 234 235 234 233 234 236 238 240 242 243 243 243 243 244 244 243 245 248 251 251 251 252 253 252 252 253 254 254 254 253 252 253 253 254 255 256 257 255 254 255 258 260 261 261 260 260 261 261 261 262 263 263 264 265 266 267 269 270 272 274 276 278 280 282 284 286 288 290
208 208 208 210 211 211 213 215 215 218 222 224 223 223 225 227 230 232 234 235 235 234 234 236 238 240 242 244 244 243 243 243 243 242 243 246 248 249 250 252 253 254 254 254 254 255 255 254 253 254 254 255 256 255 254 253 253 254 256 257 259 261 262 263 263 262 263 263 264 265 265 266 267 268 270 272 274 276 278 279 281 282 284 286 288 290
212 211 210 212 212 212 214 217 219 221 225 228 228 228 229 230 231 232 232 233 235 236 237 237 238 240 242 244 245 245 245 245 245 245 245 246 247 249 249 251 252 253 253 253 253 253 253 253 254 256 256 256 256 256 256 257 257 256 256 257 259 261 263 264 264 264 265 265 265 265 266 267 268 270 272 274 275 276 278 279 281 282 284 286 288 290
215 215 215 216 217 217 217 219 221 223 226 229 230 231 231 232 232 232 232 233 234 236 237 237 239 240 242 244 246 246 247 247 248 249 249 249 249 249 249 250 251 252 252 252 253 253 253 254 255 257 257 257 258 259 260 261 261 260 260 261 261 261 262 262 263 264 265 265 265 266 266 268 269 271 273 274 275 276 277 279 281 283 285 287 289 290
Height
10583 10589 10599 10606 10609 10612 10615 10619 10622 10623 10627 10629 10631 10634 10639 10644 10649 10652 10651 10657 10671 10677 10681 10689 10692 10696 10702 10703 10703 10704 10706 10711 10715 10716 10718 10722 10725 10727 10730 10732 10735 10739 10744 10749 10752 10756 10759 10761 10763 10767 10771 10773 10774 10776 10778 10779 10779 10781 10782 10783 10786 10790 10789 10788 10788 10788 10788 10788 10787 10786 10786 10785 10785 10784 10783 10782 10780 10779 10779 10779 10779 10779 10778 10777 10778 10778
10579 10589 10598 10600 10601 10604 10608 10611 10614 10617 10622 10624 10627 10631 10636 10642 10646 10647 10647 10654 10669 10674 10674 10682 10688 10693 10698 10699 10700 10700 10703 10708 10711 10711 10714 10718 10722 10724 10727 10730 10733 10736 10740 10743 10745 10748 10754 10757 10760 10763 10766 10769 10772 10773 10773 10773 10774 10776 10777 10779 10784 10787 10787 10785 10785 10786 10785 10785 10784 10783 10783 10782 10782 10781 10780 10779 10777 10776 10775 10775 10775 10775 10774 10774 10775 10776
10579 10589 10593 10592 10595 10598 10601 10605 10608 10614 10618 10619 10624 10629 10634 10639 10642 10643 10644 10651 10664 10668 10668 10677 10683 10689 10694 10694 10696 10697 10700 10705 10707 10709 10712 10716 10719 10720 10724 10728 10731 10735 10738 10740 10741 10745 10751 10754 10756 10757 10760 10764 10766 10767 10768 10769 10771 10773 10774 10776 10780 10784 10784 10782 10782 10783 10782 10781 10781 10780 10779 10779 10778 10778 10778 10777 10775 10773 10773 10773 10772 10772 10771 10772 10773 10772
10578 10584 10585 10585 10589 10593 10596 10600 10605 10611 10614 10617 10623 10627 10632 10635 10637 10639 10641 10646 10656 10661 10664 10671 10678 10684 10689 10690 10693 10695 10697 10703 10706 10708 10710 10712 10714 10716 10720 10724 10727 10731 10735 10738 10740 10743 10746 10749 10750 10752 10755 10759 10762 10764 10765 10766 10768 10769 10770 10772 10776 10779 10780 10779 10778 10779 10779 10778 10777 10776 10776 10776 10775 10775 10775 10774 10773 10772 10771 10771 10770 10769 10769 10770 10770 10769
10571 10575 10575 10578 10584 10587 10591 10595 10602 10609 10611 10615 10621 10625 10629 10631 10632 10635 10637 10639 10648 10657 10662 10666 10672 10679 10684 10687 10689 10692 10696 10701 10704 10704 10706 10708 10709 10712 10716 10720 10723 10727 10731 10735 10738 10739 10741 10744 10746 10748 10752 10756 10759 10761 10763 10764 10764 10765 10767 10769 10772 10774 10775 10775 10775 10775 10775 10775 10774 10773 10773 10773 10773 10773 10772 10772 10771 10770 10770 10769 10768 10768 10767 10767 10767 10766
10562 10565 10566 10572 10578 10581 10586 10592 10600 10605 10607 10611 10618 10621 10624 10626 10627 10629 10629 10632 10643 10656 10659 10659 10666 10675 10680 10683 10685 10689 10694 10697 10699 10700 10702 10704 10706 10708 10711 10715 10718 10722 10727 10732 10735 10736 10738 10740 10742 10745 10748 10751 10755 10758 10759 10760 10760 10761 10763 10765 10767 10769 10770 10771 10771 10771 10772 10771 10771 10771 10770 10770 10770 10770 10770 10769 10768 10768 10767 10766 10766 10766 10765 10764 10764 10763
10553 10559 10563 10569 10573 10576 10583 10589 10596 10600 10602 10609 10614 10616 10618 10622 10623 10622 10624 10631 10642 10653 10652 10652 10662 10672 10677 10681 10683 10686 10690 10693 10695 10697 10699 10701 10702 10704 10707 10711 10714 10719 10724 10729 10732 10733 10735 10736 10738 10741 10744 10747 10752 10754 10754 10755 10756 10757 10759 10761 10762 10764 10765 10766 10767 10768 10768 10768 10767 10768 10767 10767 10767 10767 10767 10766 10765 10764 10762 10762 10762 10763 10762 10762 10761 10760
10550 10555 10559 10564 10568 10574 10581 10589 10594 10596 10600 10606 10609 10610 10614 10618 10618 10615 10621 10631 10637 10644 10645 10648 10659 10668 10674 10679 10680 10682 10687 10691 10693 10694 10695 10697 10699 10701 10705 10709 10713 10717 10721 10724 10727 10729 10730 10732 10734 10736 10739 10743 10747 10748 10749 10751 10752 10753 10754 10757 10759 10760 10761 10762 10763 10764 10765 10764 10763 10764 10764 10763 10763 10763 10763 10762 10761 10759 10758 10758 10759 10759 10759 10759 10758 10757
10544 10548 10554 10559 10565 10573 10580 10586 10589 10591 10597 10602 10603 10605 10610 10613 10612 10611 10618 10627 10631 10639 10644 10649 10657 10665 10671 10675 10676 10679 10684 10689 10691 10691 10692 10694 10697 10699 10703 10707 10710 10712 10714 10717 10720 10723 10726 10728 10730 10731 10733 10738 10742 10743 10745 10746 10747 10748 10751 10754 10755 10756 10758 10759 10759 10760 10760 10760 10759 10760 10760 10760 10759 10759 10759 10758 10757 10755 10753 10755 10756 10757 10757 10756 10755 10753
10533 10542 10549 10553 10562 10571 10576 10580 10583 10587 10592 10595 10597 10601 10605 10607 10606 10608 10617 10624 10629 10638 10644 10646 10653 10661 10667 10670 10672 10677 10681 10684 10686 10687 10690 10692 10694 10697 10700 10703 10705 10707 10710 10712 10714 10718 10720 10721 10723 10724 10727 10732 10736 10738 10741 10742 10743 10744 10747 10749 10750 10752 10754 10754 10755 10755 10755 10755 10756 10756 10757 10756 10756 10755 10755 10754 10753 10751 10749 10750 10752 10753 10752 10752 10751 10750
10528 10537 10542 10549 10560 10566 10568 10572 10577 10583 10585 10587 10593 10598 10599 10602 10604 10608 10616 10619 10627 10638 10640 10641 10648 10655 10661 10666 10670 10674 10675 10677 10681 10684 10687 10689 10690 10694 10697 10699 10701 10704 10706 10708 10710 10711 10710 10711 10715 10719 10722 10727 10730 10734 10736 10736 10738 10740 10741 10743 10745 10747 10749 10750 10750 10751 10751 10752 10752 10752 10753 10752 10752 10751 10751 10750 10748 10748 10746 10746 10746 10747 10747 10747 10747 10746
10525 10531 10540 10549 10554 10557 10560 10565 10572 10577 10579 10583 10590 10592 10594 10599 10601 10607 10614 10618 10628 10636 10634 10636 10642 10649 10657 10662 10665 10667 10669 10672 10677 10681 10684 10685 10688 10692 10694 10696 10698 10700 10702 10703 10705 10704 10703 10706 10712 10716 10720 10723 10726 10729 10730 10730 10732 10734 10736 10738 10739 10741 10743 10745 10746 10746 10747 10748 10749 10749 10749 10748 10748 10747 10747 10746 10745 10744 10744 10743 10742 10742 10742 10742 10742 10742
10521 10529 10538 10542 10543 10549 10556 10562 10569 10573 10576 10581 10586 10588 10592 10596 10599 10606 10614 10619 10627 10630 10629 10633 10638 10645 10654 10656 10658 10661 10665 10670 10674 10678 10681 10684 10686 10690 10691 10693 10695 10697 10698 10700 10702 10703 10705 10708 10711 10714 10716 10718 10720 10722 10723 10724 10727 10729 10731 10732 10734 10736 10738 10740 10741 10742 10743 10744 10745 10745 10745 10744 10744 10744 10743 10742 10741 10741 10740 10739 10739 10738 10738 10738 10738 10737
10513 10521 10527 10531 10539 10549 10556 10562 10569 10573 10575 10579 10582 10586 10590 10593 10598 10607 10612 10616 10621 10624 10627 10629 10631 10641 10648 10650 10654 10660 10664 10668 10671 10674 10678 10682 10684 10686 10688 10690 10691 10693 10694 10696 10699 10702 10705 10707 10709 10711 10712 10713 10715 10716 10717 10720 10722 10724 10726 10727 10728 10731 10734 10736 10737 10738 10739 10741 10741 10742 10742 10741 10741 10740 10739 10739 10738 10737 10736 10735 10735 10735 10735 10735 10734 10734
10507 10516 10526 10537 10544 10550 10556 10562 10565 10567 10570 10573 10577 10583 10587 10591 10598 10605 10608 10611 10615 10620 10623 10621 10625 10636 10642 10643 10650 10657 10661 10664 10667 10669 10674 10679 10682 10683 10684 10685 10686 10687 10689 10692 10695 10699 10702 10704 10707 10708 10708 10709 10710 10711 10713 10715 10717 10719 10721 10722 10724 10726 10729 10730 10732 10733 10735 10736 10737 10738 10739 10738 10738 10738 10736 10735 10735 10734 10733 10732 10731 10731 10731 10731 10730 10730
10507 10519 10530 10537 10539 10542 10551 10556 10556 10559 10565 10568 10571 10579 10585 10590 10596 10600 10602 10605 10610 10614 10617 10617 10623 10633 10638 10639 10647 10654 10657 10660 10662 10666 10672 10677 10679 10678 10679 10679 10680 10682 10685 10688 10691 10695 10699 10702 10705 10706 10705 10705 10706 10707 10709 10711 10713 10715 10717 10719 10721 10722 10724 10726 10728 10729 10730 10731 10732 10734 10735 10735 10734 10734 10733 10731 10731 10731 10730 10729 10728 10728 10728 10727 10727 10726
10506 10518 10524 10526 10529 10536 10545 10548 10548 10556 10563 10564 10569 10580 10584 10586 10590 10593 10597 10601 10605 10610 10614 10616 10620 10628 10632 10635 10642 10649 10652 10655 10658 10663 10668 10671 10672 10671 10672 10673 10675 10678 10681 10684 10688 10692 10695 10699 10701 10702 10701 10701 10702 10704 10706 10708 10709 10711 10713 10715 10717 10718 10720 10722 10724 10725 10725 10727 10728 10729 10730 10730 10730 10729 10728 10727 10727 10727 10726 10726 10725 10724 10724 10723 10723 10722
10504 10512 10515 10518 10525 10532 10539 10542 10543 10553 10560 10560 10568 10576 10576 10579 10586 10590 10594 10599 10603 10608 10612 10614 10616 10622 10628 10630 10635 10642 10647 10653 10656 10658 10662 10663 10662 10664 10667 10670 10672 10674 10677 10681 10685 10688 10690 10693 10696 10698 10698 10699 10700 10701 10703 10705 10706 10707 10709 10711 10712 10714 10716 10718 10719 10721 10722 10723 10725 10725 10725 10725 10725 10724 10723 10722 10722 10722 10722 10722 10721 10721 10720 10719 10718 10717
10497 10500 10504 10512 10521 10528 10532 10534 10540 10551 10557 10558 10564 10570 10571 10577 10585 10588 10592 10597 10601 10606 10609 10610 10612 10619 10624 10626 10630 10636 10644 10652 10654 10654 10656 10655 10655 10659 10664 10667 10668 10671 10675 10679 10683 10685 10686 10690 10693 10694 10695 10696 10697 10699 10700 10701 10702 10704 10705 10706 10708 10710 10712 10713 10714 10716 10718 10720 10720 10720 10720 10719 10719 10719 10718 10717 10717 10717 10716 10716 10716 10716 10715 10713 10712 10711
10484 10489 10499 10509 10517 10521 10524 10529 10540 10550 10552 10553 10559 10565 10568 10574 10580 10584 10589 10593 10597 10602 10605 10607 10611 10615 10619 10623 10626 10630 10639 10647 10650 10651 10651 10649 10650 10655 10659 10662 10664 10668 10672 10676 10680 10682 10685 10689 10690 10690 10691 10693 10694 10694 10696 10698 10699 10700 10701 10702 10704 10706 10708 10709 10710 10712 10713 10714 10715 10715 10714 10714 10714 10713 10713 10712 10712 10711 10710 10710 10710 10709 10709 10707 10706 10705
10476 10486 10499 10506 10510 10516 10524 10534 10544 10547 10546 10549 10557 10564 10567 10571 10576 10581 10585 10589 10594 10599 10602 10604 10608 10611 10614 10617 10620 10624 10633 10642 10647 10648 10647 10645 10646 10650 10653 10657 10660 10665 10669 10672 10676 10681 10687 10688 10685 10685 10686 10687 10688 10690 10692 10694 10696 10697 10697 10698 10700 10701 10702 10703 10705 10706 10707 10707 10708 10708 10708 10708 10708 10708 10707 10707 10706 10706 10705 10704 10704 10703 10703 10701 10700 10699
10472 10485 10496 10502 10511 10521 10528 10532 10535 10536 10539 10547 10555 10562 10564 10567 10572 10577 10582 10588 10592 10594 10598 10601 10604 10606 10607 10611 10615 10620 10628 10636 10641 10643 10642 10641 10644 10645 10648 10652 10657 10661 10664 10668 10672 10678 10684 10682 10678 10678 10680 10681 10683 10686 10687 10689 10691 10692 10693 10694 10695 10696 10697 10698 10699 10700 10701 10702 10702 10702 10702 10702 10702 10702 10702 10701 10700 10700 10700 10699 10699 10698 10697 10696 10695 10693
10471 10482 10493 10503 10512 10518 10519 10521 10525 10531 10538 10544 10551 10557 10560 10563 10569 10575 10581 10585 10587 10590 10594 10597 10600 10601 10603 10607 10611 10617 10624 10630 10634 10638 10638 10639 10640 10642 10645 10650 10653 10656 10660 10663 10667 10673 10679 10678 10674 10673 10674 10676 10678 10680 10682 10684 10685 10687 10688 10690 10691 10692 10693 10694 10694 10695 10696 10697 10696 10696 10697 10697 10697 10697 10696 10696 10695 10695 10694 10693 10693 10693 10692 10690 10689 10688
10468 10479 10491 10499 10504 10506 10507 10513 10520 10529 10537 10543 10549 10555 10558 10561 10567 10572 10575 10578 10582 10586 10590 10594 10597 10598 10600 10604 10608 10612 10619 10625 10629 10632 10634 10636 10637 10640 10644 10646 10647 10650 10655 10659 10664 10671 10678 10677 10672 10669 10671 10673 10675 10677 10679 10680 10680 10681 10683 10685 10686 10687 10689 10690 10691 10691 10692 10692 10691 10691 10692 10692 10692 10692 10691 10691 10690 10690 10689 10688 10688 10687 10686 10685 10683 10682
10466 10478 10487 10494 10499 10501 10505 10512 10522 10532 10540 10545 10549 10553 10556 10559 10563 10566 10568 10573 10579 10583 10587 10591 10593 10593 10596 10601 10604 10607 10612 10620 10625 10628 10630 10633 10635 10638 10639 10639 10641 10647 10651 10655 10660 10667 10673 10672 10668 10668 10670 10672 10673 10674 10675 10675 10675 10676 10678 10679 10681 10682 10684 10686 10686 10687 10687 10687 10686 10686 10686 10687 10687 10686 10686 10685 10685 10684 10683 10683 10683 10682 10681 10679 10678 10677
10466 10478 10487 10495 10503 10506 10512 10521 10529 10536 10539 10542 10545 10548 10551 10555 10558 10561 10565 10571 10577 10580 10583 10586 10588 10590 10593 10596 10599 10602 10607 10616 10622 10625 10627 10629 10632 10633 10632 10633 10639 10644 10648 10652 10657 10661 10666 10666 10664 10665 10668 10670 10671 10670 10669 10670 10671 10672 10673 10675 10677 10678 10679 10681 10681 10682 10682 10681 10681 10681 10681 10681 10681 10681 10680 10680 10680 10679 10678 10678 10677 10677 10675 10674 10673 10671
10464 10475 10484 10494 10502 10506 10511 10517 10522 10526 10532 10537 10540 10543 10547 10552 10554 10557 10563 10569 10573 10576 10579 10582 10585 10587 10588 10591 10596 10600 10605 10611 10616 10620 10623 10624 10626 10627 10626 10629 10635 10640 10644 10649 10653 10656 10660 10661 10661 10663 10666 10667 10665 10664 10664 10665 10666 10668 10669 10670 10673 10674 10674 10675 10676 10676 10676 10676 10676 10676 10676 10676 10676 10676 10675 10675 10675 10674 10673 10673 10672 10671 10670 10669 10667 10666
10462 10473 10481 10490 10497 10501 10505 10508 10512 10518 10526 10531 10533 10536 10543 10547 10549 10554 10560 10565 10568 10572 10575 10578 10581 10583 10585 10588 10592 10598 10603 10605 10608 10612 10615 10618 10620 10620 10621 10625 10631 10636 10640 10645 10650 10654 10658 10659 10660 10662 10663 10661 10658 10658 10659 10660 10662 10664 10665 10666 10668 10668 10668 10669 10671 10671 10672 10672 10672 10672 10671 10671 10671 10671 10671 10671 10670 10669 10668 10668 10667 10666 10664 10663 10662 10662
10461 10471 10478 10485 10491 10495 10498 10502 10507 10514 10519 10524 10527 10532 10538 10541 10544 10550 10556 10560 10565 10568 10571 10575 10578 10580 10581 10584 10589 10595 10599 10600 10602 10605 10608 10612 10615 10616 10619 10624 10629 10632 10637 10643 10648 10653 10658 10661 10661 10659 10658 10655 10653 10652 10652 10653 10657 10660 10660 10661 10662 10662 10663 10665 10666 10667 10668 10668 10668 10667 10667 10668 10668 10667 10667 10666 10665 10664 10664 10663 10662 10660 10659 10658 10658 10658
10460 10469 10475 10481 10486 10490 10492 10496 10502 10509 10515 10521 10524 10528 10533 10536 10541 10546 10551 10557 10561 10564 10567 10571 10575 10576 10578 10583 10589 10593 10595 10596 10598 10601 10604 10609 10612 10614 10617 10621 10625 10629 10634 10640 10646 10651 10657 10661 10658 10654 10653 10650 10647 10645 10645 10648 10652 10655 10655 10656 10657 10657 10659 10661 10662 10664 10664 10664 10664 10663 10663 10664 10664 10663 10663 10662 10661 10660 10659 10657 10656 10654 10654 10653 10653 10653
10460 10466 10471 10476 10479 10482 10486 10491 10498 10504 10511 10517 10520 10524 10530 10534 10538 10543 10548 10553 10558 10560 10563 10567 10570 10573 10577 10581 10586 10588 10589 10590 10593 10597 10601 10605 10608 10611 10615 10618 10622 10626 10630 10636 10641 10645 10650 10652 10649 10647 10649 10646 10640 10638 10640 10643 10646 10649 10650 10652 10653 10654 10656 10658 10659 10660 10660 10659 10659 10659 10659 10659 10659 10659 10658 10656 10655 10655 10653 10652 10650 10649 10649 10649 10648 10647
10457 10462 10466 10470 10474 10479 10484 10490 10498 10504 10510 10515 10517 10522 10528 10532 10536 10541 10545 10550 10553 10556 10559 10563 10566 10570 10574 10577 10579 10581 10581 10584 10589 10593 10597 10600 10603 10607 10611 10614 10618 10621 10625 10630 10635 10638 10641 10642 10640 10641 10644 10641 10633 10630 10634 10638 10641 10643 10645 10647 10648 10650 10653 10654 10655 10655 10654 10654 10653 10653 10653 10653 10654 10653 10652 10650 10650 10649 10648 10647 10646 10645 10645 10644 10643 10642
10452 10458 10463 10468 10474 10481 10486 10492 10499 10505 10510 10514 10517 10522 10528 10531 10533 10538 10542 10546 10550 10553 10554 10557 10561 10567 10570 10572 10574 10575 10576 10581 10587 10590 10593 10596 10599 10601 10606 10609 10612 10615 10620 10625 10628 10630 10632 10634 10635 10636 10638 10635 10628 10626 10630 10633 10635 10638 10640 10643 10645 10647 10649 10649 10649 10649 10649 10648 10648 10647 10647 10648 10648 10647 10645 10645 10645 10644 10642 10641 10641 10640 10640 10639 10638 10637
10452 10457 10463 10469 10474 10479 10483 10490 10498 10502 10506 10511 10515 10520 10526 10530 10531 10535 10539 10543 10547 10549 10550 10552 10558 10564 10567 10568 10570 10571 10574 10579 10583 10587 10590 10593 10595 10598 10601 10604 10606 10609 10614 10618 10620 10622 10624 10627 10629 10631 10632 10629 10625 10624 10625 10627 10630 10634 10637 10639 10641 10644 10644 10644 10644 10644 10644 10643 10643 10642 10642 10643 10642 10641 10640 10640 10639 10638 10637 10636 10636 10635 10635 10634 10633 10632
10451 10456 10462 10467 10470 10474 10480 10487 10493 10499 10503 10507 10511 10516 10522 10526 10528 10531 10535 10539 10543 10546 10547 10549 10554 10560 10562 10564 10568 10570 10572 10574 10577 10581 10585 10588 10592 10595 10597 10600 10602 10603 10607 10610 10611 10614 10617 10619 10622 10624 10625 10624 10623 10622 10623 10625 10628 10631 10634 10636 10638 10639 10640 10639 10640 10640 10639 10639 10638 10637 10636 10637 10636 10635 10635 10634 10633 10632 10632 10631 10631 10630 10630 10629 10628 10626
10446 10452 10457 10461 10464 10470 10477 10483 10489 10495 10500 10503 10507 10512 10517 10520 10523 10527 10532 10537 10541 10544 10545 10546 10549 10554 10557 10560 10565 10568 10568 10569 10572 10577 10580 10584 10588 10591 10593 10596 10598 10599 10601 10603 10604 10607 10610 10613 10615 10618 10619 10619 10619 10619 10620 10622 10625 10630 10632 10633 10633 10634 10634 10635 10635 10635 10635 10635 10634 10632 10631 10630 10630 10629 10629 10628 10627 10627 10627 10626 10626 10625 10625 10624 10623 10621
10442 10449 10454 10457 10462 10469 10475 10480 10486 10492 10496 10498 10502 10508 10512 10515 10520 10524 10529 10534 10538 10540 10541 10540 10543 10549 10553 10557 10562 10565 10565 10567 10570 10573 10575 10579 10584 10586 10588 10591 10594 10596 10597 10597 10599 10602 10605 10608 10610 10612 10614 10614 10614 10615 10617 10620 10626 10630 10629 10627 10627 10627 10628 10630 10631 10631 10631 10631 10630 10628 10626 10625 10624 10623 10623 10622 10622 10622 10622 10621 10621 10620 10620 10619 10617 10616
10441 10446 10450 10454 10459 10465 10471 10478 10484 10489 10492 10496 10500 10505 10509 10513 10517 10521 10525 10529 10532 10534 10535 10534 10538 10546 10551 10554 10559 10562 10563 10564 10567 10569 10571 10575 10579 10581 10582 10585 10588 10590 10592 10594 10595 10597 10600 10603 10605 10607 10609 10610 10610 10611 10614 10618 10625 10628 10623 10620 10621 10622 10623 10625 10626 10626 10627 10626 10625 10623 10620 10619 10619 10618 10617 10617 10617 10617 10617 10616 10616 10615 10614 10613 10612 10610
10438 10443 10448 10453 10458 10464 10470 10476 10481 10486 10490 10494 10498 10502 10506 10510 10515 10518 10521 10524 10528 10531 10532 10532 10536 10544 10551 10553 10555 10558 10559 10561 10564 10566 10568 10572 10576 10577 10577 10579 10581 10584 10587 10589 10590 10592 10595 10597 10599 10602 10604 10603 10603 10606 10609 10613 10619 10622 10618 10617 10618 10618 10619 10620 10620 10620 10621 10621 10619 10617 10615 10614 10613 10612 10612 10612 10612 10612 10612 10611 10611 10610 10609 10608 10607 10605
10439 10445 10450 10454 10459 10464 10469 10474 10479 10483 10486 10490 10495 10500 10504 10507 10512 10515 10518 10522 10527 10529 10530 10530 10534 10543 10549 10550 10551 10554 10555 10557 10560 10563 10565 10568 10571 10573 10573 10573 10575 10578 10581 10584 10586 10587 10589 10591 10593 10595 10596 10596 10597 10600 10603 10606 10610 10613 10612 10612 10612 10613 10614 10615 10614 10614 10614 10614 10613 10611 10610 10609 10608 10607 10607 10607 10607 10607 10606 10606 10605 10605 10604 10603 10601 10599
10440 10445 10449 10453 10457 10462 10468 10473 10478 10481 10484 10488 10493 10497 10500 10504 10509 10513 10516 10520 10523 10525 10526 10528 10531 10538 10544 10546 10548 10551 10551 10552 10555 10557 10560 10564 10566 10567 10567 10568 10571 10573 10576 10578 10580 10582 10583 10585 10588 10590 10590 10591 10592 10594 10597 10599 10600 10602 10604 10605 10606 10607 10608 10608 10607 10607 10607 10607 10606 10605 10604 10604 10603 10603 10603 10602 10602 10601 10601 10600 10600 10599 10598 10596 10595 10593
10438 10443 10447 10451 10455 10460 10465 10470 10474 10478 10482 10487 10490 10494 10498 10503 10508 10511 10513 10516 10519 10521 10523 10523 10526 10533 10539 10542 10545 10546 10545 10546 10549 10551 10555 10558 10560 10561 10562 10564 10566 10568 10570 10572 10575 10576 10578 10580 10583 10584 10584 10585 10587 10589 10590 10592 10593 10594 10596 10597 10599 10601 10602 10601 10600 10600 10601 10600 10599 10598 10599 10599 10599 10598 10598 10597 10596 10596 10595 10594 10594 10593 10592 10590 10589 10587
10436 10439 10444 10449 10453 10458 10463 10468 10472 10477 10481 10485 10488 10492 10497 10501 10504 10507 10508 10510 10514 10516 10517 10518 10522 10529 10534 10537 10540 10541 10540 10540 10543 10546 10549 10552 10553 10555 10557 10558 10560 10562 10565 10567 10569 10571 10573 10575 10577 10578 10579 10580 10582 10584 10585 10586 10587 10588 10589 10590 10593 10596 10596 10593 10592 10593 10594 10593 10592 10592 10593 10593 10593 10592 10592 10591 10590 10590 10589 10589 10588 10587 10586 10584 10583 10581
10433 10437 10441 10446 10450 10455 10460 10466 10471 10475 10478 10482 10486 10490 10494 10497 10500 10501 10503 10505 10509 10511 10512 10515 10519 10524 10528 10531 10534 10535 10535 10536 10540 10543 10545 10545 10547 10549 10551 10552 10555 10557 10560 10563 10565 10566 10568 10569 10570 10571 10573 10575 10577 10578 10579 10581 10582 10583 10583 10585 10590 10593 10590 10586 10585 10587 10587 10586 10586 10587 10587 10587 10587 10586 10585 10585 10584 10584 10583 10583 10582 10581 10580 10578 10576 10574
10433 10437 10441 10445 10449 10454 10459 10465 10469 10473 10475 10479 10482 10486 10490 10493 10495 10497 10498 10501 10505 10507 10509 10512 10515 10519 10522 10525 10528 10530 10532 10534 10538 10541 10540 10540 10541 10543 10545 10547 10550 10552 10555 10557 10559 10562 10563 10564 10565 10566 10567 10569 10571 10572 10574 10576 10578 10578 10577 10579 10584 10586 10583 10579 10579 10580 10580 10580 10581 10581 10581 10581 10580 10580 10579 10578 10578 10578 10577 10577 10576 10575 10573 10571 10570 10568
10431 10435 10439 10443 10448 10453 10458 10463 10468 10471 10473 10475 10478 10482 10485 10487 10489 10491 10493 10496 10500 10503 10506 10508 10510 10513 10516 10518 10522 10526 10529 10532 10535 10537 10535 10534 10535 10537 10539 10542 10545 10547 10549 10551 10554 10557 10558 10559 10560 10561 10562 10563 10565 10566 10568 10570 10572 10573 10572 10572 10575 10576 10574 10572 10573 10574 10574 10574 10574 10574 10574 10574 10574 10573 10572 10572 10572 10572 10571 10571 10570 10568 10567 10565 10563 10562
10430 10434 10438 10442 10446 10451 10456 10460 10464 10467 10467 10469 10473 10477 10480 10482 10484 10486 10488 10492 10495 10498 10501 10503 10505 10507 10509 10512 10516 10521 10525 10527 10530 10531 10530 10529 10529 10531 10534 10538 10540 10541 10543 10546 10548 10550 10552 10553 10555 10557 10557 10558 10559 10561 10564 10567 10568 10566 10564 10564 10566 10567 10565 10565 10566 10567 10567 10567 10568 10568 10568 10568 10567 10567 10566 10566 10567 10566 10566 10565 10564 10562 10560 10559 10558 10556
10427 10431 10435 10439 10444 10449 10453 10456 10458 10459 10459 10462 10467 10471 10474 10477 10479 10481 10483 10486 10489 10493 10495 10498 10499 10501 10503 10505 10510 10515 10518 10520 10523 10525 10525 10524 10525 10527 10530 10532 10534 10536 10538 10540 10542 10544 10545 10547 10549 10551 10552 10552 10553 10556 10558 10560 10561 10558 10556 10557 10559 10558 10557 10557 10559 10560 10560 10561 10561 10562 10562 10561 10560 10560 10561 10561 10561 10561 10560 10559 10557 10556 10554 10553 10552 10550
10422 10427 10432 10437 10441 10446 10448 10450 10453 10454 10455 10457 10462 10466 10469 10472 10474 10476 10479 10481 10484 10487 10490 10492 10494 10496 10498 10500 10504 10509 10512 10514 10516 10518 10518 10518 10520 10522 10524 10526 10528 10530 10532 10534 10536 10537 10538 10540 10542 10544 10545 10545 10547 10548 10549 10550 10551 10550 10550 10552 10552 10551 10550 10551 10552 10553 10554 10554 10555 10555 10555 10554 10553 10554 10555 10556 10555 10554 10553 10552 10551 10549 10548 10547 10546 10544
10421 10426 10430 10434 10436 10440 10442 10445 10448 10450 10452 10455 10459 10463 10466 10469 10471 10473 10475 10477 10479 10481 10484 10487 10489 10490 10492 10495 10498 10503 10506 10508 10509 10511 10511 10512 10514 10516 10518 10519 10521 10523 10525 10527 10529 10530 10531 10533 10535 10536 10537 10538 10538 10540 10541 10543 10543 10543 10544 10546 10546 10545 10545 10545 10546 10546 10547 10548 10549 10548 10547 10547 10548 10549 10550 10549 10548 10547 10547 10546 10545 10543 10542 10541 10539 10538
10420 10424 10427 10430 10432 10434 10437 10439 10442 10445 10448 10451 10455 10459 10463 10466 10468 10469 10470 10471 10473 10474 10477 10480 10482 10485 10488 10491 10493 10497 10500 10502 10503 10503 10504 10506 10508 10510 10512 10513 10514 10516 10518 10520 10522 10523 10524 10525 10527 10528 10529 10530 10532 10534 10536 10536 10535 10535 10537 10539 10540 10538 10538 10539 10539 10539 10540 10541 10541 10540 10540 10541 10542 10543 10543 10542 10541 10541 10540 10539 10538 10537 10536 10534 10533 10531